Tracking 19905 objects as of 18-Oct-2019
HD Live streaming from Space Station
objects crossing your sky now

COSMOS 1275 DEB

Track COSMOS 1275 DEB now!
10-day predictions


NORAD ID: 13471
Int'l Code: 1981-053FT
Perigee: 878.6 km
Apogee: 962.1 km
Inclination: 82.8 °
Period: 103.3 minutes
Semi major axis: 7291 km
RCS: 0.0585 m2 (small)
Launch date: June 4, 1981
Source: Commonwealth of Independent States (former USSR) (CIS)
Launch site: PLESETSK MISSILE AND SPACE COMPLEX (PKMTR)

Note: This is SATELLITE DEBRIS
aabbcc
Your satellite tracking list
Your tracking list is empty




NASA's NSSDC Master Catalog

Two Line Element Set (TLE):
1 13471U 81053FT  19290.00027753  .00000447  00000-0  31932-3 0  9994
2 13471  82.8085 295.4532 0057240 142.6417 247.3746 13.94411106887828
Source of the keplerian elements: AFSPC